Time,TemperatureF,DewpointF,PressureIn,WindDirection,WindDirectionDegrees,WindSpeedMPH,WindSpeedGustMPH,Humidity,HourlyPrecipIn,Conditions,Clouds,dailyrainin,SoftwareType,DateUTC
2013-02-22 00:00:00,44.0,38.0,30.25,North,-999,-999.0,-999.0,79,-99.99,,,-99.99,,2013-02-22 00:00:00,
2013-02-22 00:41:00,44.0,38.0,30.25,North,-999,-999.0,-999.0,79,-99.99,,,-99.99,,2013-02-22 00:41:00,
2013-02-22 00:51:00,44.0,38.0,30.25,North,-999,-999.0,-999.0,79,-99.99,,,-99.99,,2013-02-22 00:51:00,
2013-02-22 01:00:00,44.0,38.0,30.25,North,-999,-999.0,-999.0,81,-99.99,,,-99.99,,2013-02-22 01:00:00,
2013-02-22 01:41:00,44.0,38.0,30.25,North,-999,-999.0,-999.0,81,-99.99,,,-99.99,,2013-02-22 01:41:00,
2013-02-22 01:51:00,44.0,38.0,30.25,North,-999,-999.0,-999.0,81,-99.99,,,-99.99,,2013-02-22 01:51:00,
2013-02-22 02:00:00,44.0,37.0,30.24,North,-999,-999.0,-999.0,76,-99.99,,,-99.99,,2013-02-22 02:00:00,
2013-02-22 02:31:00,44.0,37.0,30.24,North,-999,-999.0,-999.0,76,-99.99,,,-99.99,,2013-02-22 02:31:00,
2013-02-22 02:41:00,44.0,37.0,30.24,North,-999,-999.0,-999.0,76,-99.99,,,-99.99,,2013-02-22 02:41:00,
2013-02-22 02:52:00,44.0,37.0,30.24,North,-999,-999.0,-999.0,76,-99.99,,,-99.99,,2013-02-22 02:52:00,
2013-02-22 03:00:00,44.0,37.0,30.24,North,-999,-999.0,-999.0,76,-99.99,,,-99.99,,2013-02-22 03:00:00,
2013-02-22 03:41:00,44.0,37.0,30.24,North,-999,-999.0,-999.0,76,-99.99,,,-99.99,,2013-02-22 03:41:00,
2013-02-22 03:51:00,44.0,37.0,30.24,North,-999,-999.0,-999.0,76,-99.99,,,-99.99,,2013-02-22 03:51:00,
2013-02-22 04:00:00,44.0,38.0,30.23,North,-999,-999.0,-999.0,81,-99.99,,,-99.99,,2013-02-22 04:00:00,
2013-02-22 04:41:00,44.0,38.0,30.23,North,-999,-999.0,-999.0,81,-99.99,,,-99.99,,2013-02-22 04:41:00,
2013-02-22 04:51:00,44.0,38.0,30.23,North,-999,-999.0,-999.0,81,-99.99,,,-99.99,,2013-02-22 04:51:00,
2013-02-22 06:00:00,43.0,37.0,30.24,North,-999,-999.0,-999.0,77,-99.99,,,-99.99,,2013-02-22 06:00:00,
2013-02-22 06:41:00,43.0,37.0,30.24,North,-999,-999.0,-999.0,77,-99.99,,,-99.99,,2013-02-22 06:41:00,
2013-02-22 06:51:00,43.0,37.0,30.24,North,-999,-999.0,-999.0,77,-99.99,,,-99.99,,2013-02-22 06:51:00,
2013-02-22 07:00:00,43.0,37.0,30.25,North,-999,-999.0,-999.0,78,-99.99,,,-99.99,,2013-02-22 07:00:00,
2013-02-22 07:42:00,43.0,37.0,30.25,North,-999,-999.0,-999.0,78,-99.99,,,-99.99,,2013-02-22 07:42:00,
2013-02-22 07:51:00,43.0,37.0,30.25,North,-999,-999.0,-999.0,78,-99.99,,,-99.99,,2013-02-22 07:51:00,
2013-02-22 08:00:00,44.0,35.0,30.27,North,-999,-999.0,-999.0,71,-99.99,,,-99.99,,2013-02-22 08:00:00,
2013-02-22 08:41:00,44.0,35.0,30.27,North,-999,-999.0,-999.0,71,-99.99,,,-99.99,,2013-02-22 08:41:00,
2013-02-22 08:51:00,44.0,35.0,30.27,North,-999,-999.0,-999.0,71,-99.99,,,-99.99,,2013-02-22 08:51:00,
2013-02-22 09:00:00,43.0,34.0,30.28,North,-999,-999.0,-999.0,70,-99.99,,,-99.99,,2013-02-22 09:00:00,
2013-02-22 09:31:00,43.0,34.0,30.28,North,-999,-999.0,-999.0,70,-99.99,,,-99.99,,2013-02-22 09:31:00,
2013-02-22 09:41:00,43.0,34.0,30.28,North,-999,-999.0,-999.0,70,-99.99,,,-99.99,,2013-02-22 09:41:00,
2013-02-22 09:51:00,43.0,34.0,30.28,North,-999,-999.0,-999.0,70,-99.99,,,-99.99,,2013-02-22 09:51:00,
2013-02-22 10:00:00,44.0,34.0,30.29,North,-999,-999.0,-999.0,69,-99.99,,,-99.99,,2013-02-22 10:00:00,
2013-02-22 10:42:00,44.0,34.0,30.29,North,-999,-999.0,-999.0,69,-99.99,,,-99.99,,2013-02-22 10:42:00,
2013-02-22 10:51:00,44.0,34.0,30.29,North,-999,-999.0,-999.0,69,-99.99,,,-99.99,,2013-02-22 10:51:00,
2013-02-22 11:00:00,44.0,34.0,30.29,North,-999,-999.0,-999.0,67,-99.99,,,-99.99,,2013-02-22 11:00:00,
2013-02-22 11:42:00,44.0,34.0,30.29,North,-999,-999.0,-999.0,67,-99.99,,,-99.99,,2013-02-22 11:42:00,
2013-02-22 11:52:00,44.0,34.0,30.29,North,-999,-999.0,-999.0,67,-99.99,,,-99.99,,2013-02-22 11:52:00,
2013-02-22 12:00:00,45.0,35.0,30.29,North,-999,-999.0,-999.0,65,-99.99,,,-99.99,,2013-02-22 12:00:00,
2013-02-22 12:42:00,45.0,35.0,30.29,North,-999,-999.0,-999.0,65,-99.99,,,-99.99,,2013-02-22 12:42:00,
2013-02-22 12:51:00,45.0,35.0,30.29,North,-999,-999.0,-999.0,65,-99.99,,,-99.99,,2013-02-22 12:51:00,
2013-02-22 13:00:00,46.0,35.0,30.29,North,-999,-999.0,-999.0,66,-99.99,,,-99.99,,2013-02-22 13:00:00,
2013-02-22 13:41:00,46.0,35.0,30.29,North,-999,-999.0,-999.0,66,-99.99,,,-99.99,,2013-02-22 13:41:00,
2013-02-22 13:51:00,46.0,35.0,30.29,North,-999,-999.0,-999.0,66,-99.99,,,-99.99,,2013-02-22 13:51:00,
2013-02-22 14:00:00,44.0,34.0,30.28,North,-999,-999.0,-999.0,67,-99.99,,,-99.99,,2013-02-22 14:00:00,
2013-02-22 14:41:00,44.0,34.0,30.28,North,-999,-999.0,-999.0,67,-99.99,,,-99.99,,2013-02-22 14:41:00,
2013-02-22 14:52:00,44.0,34.0,30.28,North,-999,-999.0,-999.0,67,-99.99,,,-99.99,,2013-02-22 14:52:00,
2013-02-22 15:00:00,44.0,-99.9,30.28,North,-999,-999.0,-999.0,-999,-99.99,,,-99.99,,2013-02-22 15:00:00,
2013-02-22 15:42:00,44.0,-99.9,30.28,North,-999,-999.0,-999.0,-999,-99.99,,,-99.99,,2013-02-22 15:42:00,
2013-02-22 15:52:00,44.0,-99.9,30.28,North,-999,-999.0,-999.0,-999,-99.99,,,-99.99,,2013-02-22 15:52:00,
2013-02-22 16:00:00,44.0,34.0,30.27,North,-999,-999.0,-999.0,68,-99.99,,,-99.99,,2013-02-22 16:00:00,
2013-02-22 16:41:00,44.0,34.0,30.27,North,-999,-999.0,-999.0,68,-99.99,,,-99.99,,2013-02-22 16:41:00,
2013-02-22 16:52:00,44.0,34.0,30.27,North,-999,-999.0,-999.0,68,-99.99,,,-99.99,,2013-02-22 16:52:00,
2013-02-22 17:00:00,44.0,-99.9,30.28,North,-999,-999.0,-999.0,-999,-99.99,,,-99.99,,2013-02-22 17:00:00,
2013-02-22 17:42:00,44.0,-99.9,30.28,North,-999,-999.0,-999.0,-999,-99.99,,,-99.99,,2013-02-22 17:42:00,
2013-02-22 17:52:00,44.0,-99.9,30.28,North,-999,-999.0,-999.0,-999,-99.99,,,-99.99,,2013-02-22 17:52:00,
2013-02-22 18:00:00,43.0,34.0,30.29,North,-999,-999.0,-999.0,69,-99.99,,,-99.99,,2013-02-22 18:00:00,
2013-02-22 18:31:00,43.0,34.0,30.29,North,-999,-999.0,-999.0,69,-99.99,,,-99.99,,2013-02-22 18:31:00,
2013-02-22 18:41:00,43.0,34.0,30.29,North,-999,-999.0,-999.0,69,-99.99,,,-99.99,,2013-02-22 18:41:00,
2013-02-22 18:51:00,43.0,34.0,30.29,North,-999,-999.0,-999.0,69,-99.99,,,-99.99,,2013-02-22 18:51:00,
2013-02-22 20:00:00,43.0,-99.9,30.32,North,-999,-999.0,-999.0,-999,-99.99,,,-99.99,,2013-02-22 20:00:00,
2013-02-22 20:42:00,43.0,-99.9,30.32,North,-999,-999.0,-999.0,-999,-99.99,,,-99.99,,2013-02-22 20:42:00,
2013-02-22 20:52:00,43.0,-99.9,30.32,North,-999,-999.0,-999.0,-999,-99.99,,,-99.99,,2013-02-22 20:52:00,
2013-02-22 22:00:00,42.0,-99.9,30.32,North,-999,-999.0,-999.0,-999,-99.99,,,-99.99,,2013-02-22 22:00:00,
2013-02-22 22:42:00,42.0,-99.9,30.32,North,-999,-999.0,-999.0,-999,-99.99,,,-99.99,,2013-02-22 22:42:00,
2013-02-22 22:52:00,42.0,-99.9,30.32,North,-999,-999.0,-999.0,-999,-99.99,,,-99.99,,2013-02-22 22:52:00,
2013-02-22 23:00:00,42.0,-99.9,30.32,North,-999,-999.0,-999.0,-999,-99.99,,,-99.99,,2013-02-22 23:00:00,
2013-02-22 23:42:00,42.0,-99.9,30.32,North,-999,-999.0,-999.0,-999,-99.99,,,-99.99,,2013-02-22 23:42:00,
2013-02-22 23:52:00,42.0,-99.9,30.32,North,-999,-999.0,-999.0,-999,-99.99,,,-99.99,,2013-02-22 23:52:00,